Powrót do katalogu

FENGYUN 1C DEB

AktywnySSO
NORAD 30446·DEBRIS·🇨🇳 China

Wystrzelony May 10, 1999 z Taiyuan Satellite Launch Center

Loading…

Następne Przeloty (najbliższe 24 godziny)

TLE

ŚwieżeSource: Space-Track

Epoka: Sep 13, 2026, 11:40 UTC

1 30446U 99025AFH 26256.48628412  .00002895  00000-0  79614-3 0  9992
2 30446  98.6054 348.1774 0031576 349.5618  10.4915 14.47446781 21495

Śledź FENGYUN 1C DEB w czasie rzeczywistym z AllMySat

Download on the App Store